EHI
0 0 0 0 0 0 0 0 0 0 0 0 0 0 0 0 0 0 0 0 0 0 0 0 0 0 0 0 0 0 0 0 0 1 2 1 0 0 0 0 0 0 0
0 0 0 0 0 0 0 0 0 0 0 0 0 0 0 0 0 0 0 0 0 0 0 0 0 0 0 0 0 0 0 0 1 2 2 1 0 0 0 0 0 0 0
0 0 0 0 0 0 0 0 0 0 0 0 0 0 0 0 0 0 0 0 0 0 0 0 0 0 0 0 0 0 0 0 1 2 3 2 1 0 0 0 0 0 0
0 0 0 0 0 0 0 0 0 0 0 0 0 0 0 0 0 0 0 0 0 0 0 0 0 0 0 0 0 0 0 0 0 1 2 2 1 0 0 0 0 0 0
0 0 0 0 0 0 0 0 0 0 0 0 0 0 0 0 0 0 0 0 0 0 0 0 0 0 0 0 0 0 0 0 0 0 1 1 1 0 0 0 0 0 0
0 0 0 0 0 0 0 0 0 0 0 0 0 0 0 0 0 0 0 0 0 0 0 0 0 0 0 0 0 0 0 0 0 0 0 1 1 0 0 0 0 0 0
0 0 0 0 0 0 0 0 0 0 0 0 0 0 0 0 0 0 0 0 0 0 0 0 0 0 0 0 0 0 0 0 0 0 0 1 1 0 0 0 0 0 0
0 0 0 0 0 0 0 0 0 0 0 0 0 0 0 0 0 0 0 0 0 0 0 0 0 0 0 0 0 0 0 0 0 0 0 0 0 0 0 0 1 0 0
0 0 0 0 0 0 0 0 0 0 0 0 0 0 0 0 0 0 0 0 0 0 0 0 0 0 0 0 0 0 0 0 0 0 0 0 0 0 0 0 0 0 0
0 0 0 0 0 0 0 0 0 0 0 0 0 0 0 0 0 0 0 0 0 0 0 0 0 0 0 0 0 0 0 0 0 0 0 0 0 0 0 0 0 0 0
0 0 0 0 0 0 0 0 0 0 0 0 0 0 0 0 0 0 0 0 0 0 0 0 0 0 0 0 0 0 0 0 0 0 0 0 0 0 0 0 0 0 0
0 0 0 0 0 0 0 0 0 0 0 0 0 0 0 0 0 0 0 0 0 0 0 0 0 0 0 0 0 0 0 0 0 0 0 0 0 0 0 0 0 0 0
0 0 0 0 0 0 0 0 0 0 0 0 0 0 0 0 0 0 0 0 0 0 0 0 0 0 0 0 0 0 0 0 0 0 0 0 0 0 0 0 0 0 0
0 0 0 0 0 0 0 0 0 0 0 0 0 0 0 0 0 0 0 0 0 0 0 0 0 0 0 0 0 0 0 0 0 0 0 0 0 0 0 0 0 0 0
0 0 0 0 0 0 0 0 0 0 0 0 0 0 0 0 0 0 0 0 0 0 0 0 0 0 0 0 0 0 0 0 0 0 0 0 0 0 0 0 0 0 0
0 0 0 0 0 0 0 0 0 0 0 0 0 0 0 0 0 0 0 0 0 0 0 0 0 0 0 0 0 0 0 0 0 0 0 0 0 0 0 0 0 0 0
0 0 0 0 0 0 0 0 0 0 0 0 0 0 0 0 0 0 0 0 0 0 0 0 0 0 0 0 0 0 0 0 0 0 0 0 0 0 0 0 0 0 0
0 0 0 0 0 0 0 0 0 0 0 0 0 0 0 0 0 0 0 0 0 0 0 0 0 0 0 0 0 0 0 0 0 0 0 0 0 0 0 0 0 0 0
0 0 0 0 0 0 0 0 0 0 0 0 0 0 0 0 0 0 0 0 0 0 0 0 0 0 0 0 0 0 0 0 0 0 0 0 0 0 0 0 0 0 0
0 0 0 0 0 0 0 0 0 0 0 0 0 0 0 0 0 0 0 0 0 0 0 0 0 0 0 0 0 0 0 0 0 0 0 0 0 0 0 0 0 0 0
0 0 0 0 0 0 0 0 0 0 0 0 0 0 0 0 0 0 0 0 0 0 0 0 0 0 0 0 0 0 0 0 0 0 0 0 0 0 0 0 0 0 0
0 0 0 0 0 0 0 0 0 0 0 0 0 0 0 0 0 0 0 0 0 0 0 0 0 0 0 0 0 0 0 0 0 0 0 0 0 0 0 0 0 0 0
0 0 0 0 0 0 0 0 0 0 0 0 0 0 0 0 0 0 0 0 0 0 0 0 0 0 0 0 0 0 0 0 0 0 0 0 0 0 0 0 0 0 0
0 0 0 0 0 0 0 0 0 0 0 0 0 0 0 0 0 0 0 0 0 0 0 0 0 0 0 0 0 0 0 0 0 0 0 0 0 0 0 0 0 0 0
0 0 0 0 0 0 0 0 0 0 0 0 0 0 0 0 0 0 0 0 0 0 0 0 0 0 0 0 0 0 0 0 0 0 0 0 0 0 0 0 0 0 0
0 0 0 0 0 0 0 0 0 0 0 0 0 0 0 0 0 0 0 0 0 0 0 0 0 0 0 0 0 0 0 0 0 0 0 0 0 0 0 0 0 0 0
Wind_Speed
7 6 6 6 5 4 3 1 1 1 1 2 3 3 3 3 3 4 5 5 5 6 5 5 5 4 4 4 4 4 4 3 3 3 3 3 3 2 2 3 3 4 3
8 8 7 7 6 4 3 2 1 1 2 2 3 3 4 4 4 4 4 5 5 5 5 5 4 3 3 4 4 3 3 3 2 3 3 3 4 3 2 2 2 3 2
8 9 8 7 6 4 3 2 0 0 1 2 2 3 2 3 2 3 3 5 5 5 5 5 5 4 4 3 4 4 4 3 2 2 2 2 2 1 2 2 2 2 2
8 8 8 7 6 5 3 2 1 1 0 2 2 4 4 4 5 4 4 5 4 5 4 5 5 4 4 4 4 3 3 4 3 2 2 2 2 2 1 2 2 1 2
8 8 8 7 6 5 4 2 1 1 0 2 2 4 4 4 3 4 5 5 4 4 4 4 4 4 3 3 4 3 4 3 3 2 2 2 2 3 2 2 1 1 2
8 8 7 7 6 5 4 3 2 1 1 2 3 3 4 4 5 5 5 4 3 3 4 4 4 4 3 3 3 3 4 3 3 3 3 2 2 2 2 2 2 1 1
8 9 9 8 7 6 5 4 4 3 2 3 3 3 3 4 4 5 4 5 4 4 5 5 4 4 4 3 3 3 3 3 4 4 3 3 3 3 3 3 2 2 1
8 8 8 8 7 7 6 5 4 3 2 3 3 3 3 3 3 4 5 5 4 5 5 5 4 4 4 3 2 3 3 3 3 4 3 3 3 3 2 3 2 2 2
8 8 8 8 8 7 7 6 5 4 3 3 3 3 3 3 4 4 5 4 4 4 5 5 4 4 3 3 3 3 3 3 3 3 3 3 2 2 2 3 3 3 2
8 8 8 8 8 7 6 6 5 4 3 3 3 2 3 3 4 5 5 5 5 5 5 4 4 3 2 2 2 3 2 3 2 2 3 3 2 2 2 3 3 3 3
9 9 8 8 8 7 7 6 6 5 3 3 3 3 2 3 3 3 4 4 4 4 4 4 4 4 3 2 1 2 2 3 3 3 3 3 3 2 2 2 3 3 3
8 8 9 9 8 8 8 7 6 5 4 3 3 3 3 3 3 3 3 4 4 4 4 4 3 3 3 3 2 2 2 2 3 3 3 3 2 3 3 3 3 3 3
8 8 8 9 9 8 8 7 7 6 5 4 3 3 3 2 3 3 3 4 4 4 3 3 3 3 3 3 2 2 1 1 1 2 2 2 3 3 2 3 3 3 3
9 9 9 9 9 9 9 8 7 6 5 5 4 4 3 2 3 3 3 3 3 3 3 3 3 3 3 3 3 2 2 1 1 1 2 2 2 2 2 3 3 3 3
10 11 11 10 10 9 9 8 7 7 6 6 5 4 3 2 3 2 3 3 3 3 3 3 3 3 3 3 4 3 2 2 1 1 1 1 1 2 2 2 2 3 3
11 11 11 11 11 11 10 9 8 8 7 6 5 3 3 3 3 3 3 3 3 3 3 3 3 3 3 4 5 5 2 1 1 1 1 0 2 2 3 3 3 3 3
10 10 11 12 11 11 10 10 9 8 8 7 5 4 4 3 3 2 2 2 2 2 3 3 3 3 3 3 4 5 4 2 2 1 1 1 0 2 2 3 5 4 4
9 9 10 10 11 10 10 9 9 9 8 7 6 5 4 3 3 2 2 3 2 2 2 3 3 2 2 3 4 5 4 2 1 1 2 1 1 1 2 2 3 3 3
7 8 9 10 10 10 11 10 10 9 8 7 7 6 5 4 3 3 3 2 2 2 2 2 2 2 1 2 4 7 2 2 1 1 2 2 1 3 3 3 3 3 2
5 7 8 10 10 10 10 11 10 10 9 8 7 6 5 4 4 4 3 2 2 2 2 2 2 3 3 3 4 7 3 2 1 1 0 2 2 3 4 4 3 3 2
6 7 9 9 9 10 11 11 11 10 8 7 6 6 5 5 4 3 3 3 2 2 2 2 2 2 2 1 2 5 4 3 2 2 1 1 3 2 3 5 3 3 5
7 9 9 9 9 10 11 11 10 8 8 7 7 6 5 4 4 4 3 3 3 3 2 2 1 1 0 2 2 2 3 5 2 2 1 2 3 2 3 3 4 4 5
7 8 9 9 10 11 11 11 10 9 8 8 7 6 6 5 4 4 4 3 3 3 2 2 1 1 1 1 1 1 1 2 2 1 4 4 2 2 1 2 2 3 2
7 8 10 10 11 11 11 10 9 9 10 9 8 7 6 5 4 2 2 2 2 2 2 1 1 1 1 1 1 0 2 3 3 1 3 3 1 0 1 1 1 1 3
7 8 10 10 11 11 11 10 10 10 10 10 8 7 6 5 4 3 1 0 2 3 2 1 1 2 2 5 7 5 3 2 2 1 1 1 1 1 2 2 3 3 3
7 8 10 10 11 11 11 11 10 11 11 9 8 6 6 5 4 5 5 6 5 7 7 6 4 3 4 5 5 5 5 5 3 1 1 2 2 2 3 3 3 3 3
Wind_Direction
193 183 185 188 194 195 206 191 269 353 339 343 328 329 334 329 330 334 336 322 316 315 308 302 305 303 300 298 293 291 277 268 275 265 242 214 208 220 224 236 232 224 227
190 181 186 184 196 189 198 211 234 348 350 357 331 327 324 320 332 327 330 331 327 321 307 303 299 293 289 286 287 283 286 277 259 268 259 224 189 194 203 210 219 227 214
199 185 187 184 186 188 189 193 243 197 5 343 323 313 307 290 314 334 338 336 330 325 313 307 303 298 289 285 281 274 269 275 261 260 275 266 232 182 175 199 214 215 220
197 187 186 186 186 180 179 193 181 250 14 306 323 332 326 333 341 333 333 328 332 331 321 307 300 298 295 285 274 266 259 258 257 244 257 281 327 276 197 178 186 220 232
191 187 187 185 181 170 175 188 186 219 302 314 328 304 320 330 329 327 331 327 341 336 327 316 308 304 296 289 284 279 266 253 257 259 251 245 242 256 267 227 196 221 228
183 184 179 180 177 170 175 184 200 195 242 278 282 302 324 321 324 329 333 330 336 335 341 325 311 304 297 283 276 269 259 258 255 255 252 250 250 244 249 252 239 241 252
181 181 180 183 180 180 183 190 200 209 228 265 282 307 314 311 317 325 331 327 332 339 343 331 318 314 303 288 273 263 257 249 249 251 253 253 253 257 257 255 249 254 268
185 184 184 185 184 185 187 197 204 215 228 261 286 300 304 299 319 321 320 323 329 332 331 325 322 315 306 292 269 269 258 251 247 254 254 252 253 249 241 249 255 243 238
186 187 185 187 186 187 189 196 203 212 223 251 273 288 304 307 313 311 315 320 320 321 324 323 324 323 311 297 273 256 258 252 246 253 248 247 248 248 249 243 242 253 248
188 188 186 188 188 187 187 191 203 214 219 242 259 285 297 301 307 312 323 324 324 325 323 325 333 332 323 307 285 267 270 256 242 248 255 252 247 241 244 242 245 246 254
191 188 186 187 185 185 187 191 197 208 218 233 245 261 279 294 297 309 321 323 324 325 327 335 336 338 341 334 303 276 259 255 250 239 242 243 248 243 235 232 237 238 237
193 189 186 183 186 191 193 196 200 202 206 225 241 262 279 278 288 307 317 323 329 331 333 339 339 349 344 337 331 311 275 255 257 256 248 240 232 240 239 235 232 230 232
195 191 188 191 191 193 196 198 200 203 200 211 233 249 254 277 294 304 315 320 329 335 337 342 343 349 345 340 331 317 305 290 274 267 256 244 232 236 232 234 236 234 233
200 196 193 194 193 193 195 197 198 198 199 205 225 241 258 270 287 302 310 316 326 331 334 340 337 344 343 337 341 345 348 345 327 301 289 260 243 252 247 238 238 237 235
205 201 199 195 191 192 194 194 196 194 195 203 218 231 246 256 274 286 293 310 320 321 336 336 336 348 346 357 347 345 351 354 344 330 319 318 338 325 298 285 259 242 235
211 205 202 197 194 192 192 190 192 191 193 203 210 211 238 243 259 273 286 301 307 314 326 322 332 342 359 11 342 318 319 331 326 319 322 210 204 213 233 263 283 286 264
214 205 202 197 196 194 190 187 189 184 192 198 200 204 220 229 245 257 272 280 281 299 307 312 315 322 9 7 338 310 300 306 326 328 321 313 262 234 227 202 214 227 232
212 205 200 194 193 189 185 183 182 186 192 196 198 200 213 221 227 239 260 272 286 295 296 314 314 319 357 1 330 305 276 285 289 290 294 280 296 342 305 251 241 250 238
209 200 195 187 186 183 181 182 184 187 192 196 201 199 204 211 217 224 237 259 279 288 287 305 310 304 329 19 330 304 286 278 285 301 325 319 312 51 316 270 258 259 254
197 186 181 181 180 178 179 186 188 190 194 196 202 200 202 208 216 226 237 235 246 267 281 294 300 306 321 36 345 309 288 290 293 298 250 70 356 16 320 281 277 280 292
184 178 178 180 179 175 180 191 192 194 190 189 194 196 196 206 216 224 226 229 236 253 267 272 273 291 326 24 3 324 298 299 304 309 306 60 75 359 327 303 309 338 315
182 181 180 178 175 177 185 192 192 186 178 179 186 192 195 201 203 209 222 230 229 234 242 252 258 269 276 5 30 351 322 315 302 312 331 55 60 13 338 328 12 339 298
188 187 186 178 177 182 191 194 183 178 175 178 183 188 189 191 201 204 206 214 222 241 252 257 276 294 348 101 140 252 311 311 293 4 46 39 18 300 228 81 339 294 286
196 189 188 187 185 184 190 193 177 176 180 182 184 185 187 184 184 191 211 217 228 236 247 268 288 309 326 343 345 213 172 180 202 189 132 149 121 297 23 354 307 341 359
201 195 198 197 190 184 185 185 178 179 185 185 183 185 181 175 171 148 73 41 56 16 336 332 329 330 350 25 9 345 351 359 26 2 136 78 70 55 49 35 23 10 5
208 202 200 198 193 186 184 181 180 186 190 187 183 180 175 170 168 154 126 69 71 72 62 41 20 52 47 41 46 48 44 37 15 331 87 59 42 31 24 23 22 14 6